sat.trackr.live / text

‹ back to catalog

STARLINK-34573

NORAD 64676 · 2025-139N

PAYLOAD ACTIVE UNKNOWN

§ Identity

Operator
Country
US
Launch date
2025-06-28
Launch site
AFETR
Launch vehicle
Mass (kg)
RCS (m²)

Purposes: comms

External: N2YO · Heavens-Above · Gunter

§ Orbital elements

Epoch: 2026-09-20T19:23:50.214912Z

Period
93.85 min
Inclination
53.1591°
Eccentricity
0.0001195
Mean motion
15.34393645 rev/d
Perigee alt
461.9 km
Apogee alt
463.5 km
Semi-major
6,840.9 km
B*
3.5110e-4
RAAN
296.0513°
Arg perigee
77.2673°
Mean anomaly
282.8463°
Rev number
7,022

§ Raw data

STARLINK-345731 64676U 25139N   26263.80822008  .00011502  00000+0  35110-3 0  99972 64676  53.1591 296.0513 0001195  77.2673 282.8463 15.34393645 70226

JSON: /api/v1/satellites/64676 · /tle

For live sub-satellite position, see the globe view (requires WebGL).

§ Visibility from observer

Set your observer location to see the next 7 days of passes ≥ 10°. The values pass through the URL so the page stays shareable.

No JS? Fill the form by hand. The geolocation button needs JavaScript.